TimeCEST,TemperatureF,Dew PointF,Humidity,Sea Level PressureIn,VisibilityMPH,Wind Direction,Wind SpeedMPH,Gust SpeedMPH,PrecipitationIn,Events,Conditions,WindDirDegrees,DateUTC
12:45 AM,66.2,51.8,60,30.06,-9999.0,NE,6.9,-,N/A,,Clear,40,2013-08-22 22:45:00
1:45 AM,66.2,50.0,56,30.06,-9999.0,NE,9.2,-,N/A,,Clear,40,2013-08-22 23:45:00
2:00 AM,65,49,47,30.06,19,NE,8.9,,,,Partly Cloudy,40,2013-08-23 00:00:00
2:45 AM,64.4,50.0,59,30.06,-9999.0,NE,5.8,-,N/A,,Clear,40,2013-08-23 00:45:00
3:45 AM,59.0,50.0,72,30.06,-9999.0,North,3.5,-,N/A,,Clear,360,2013-08-23 01:45:00
4:45 AM,59.0,50.0,72,30.04,-9999.0,North,4.6,-,N/A,,Clear,10,2013-08-23 02:45:00
5:45 AM,59.0,50.0,72,30.04,-9999.0,NNE,6.9,-,N/A,,Clear,20,2013-08-23 03:45:00
6:15 AM,59.0,50.0,72,30.04,-9999.0,North,6.9,-,N/A,,Clear,10,2013-08-23 04:15:00
6:45 AM,60.8,50.0,68,30.04,-9999.0,North,5.8,-,N/A,,Clear,10,2013-08-23 04:45:00
7:15 AM,62.6,51.8,68,30.04,-9999.0,North,5.8,-,N/A,,Clear,10,2013-08-23 05:15:00
7:45 AM,64.4,51.8,64,30.06,-9999.0,North,5.8,-,N/A,,Clear,10,2013-08-23 05:45:00
8:00 AM,64,51,54,30.05,22,North,6.7,,,,Partly Cloudy,10,2013-08-23 06:00:00
8:15 AM,66.2,51.8,60,30.06,-9999.0,NNE,5.8,-,N/A,,Clear,20,2013-08-23 06:15:00
8:45 AM,68.0,51.8,56,30.06,-9999.0,North,6.9,-,N/A,,Clear,10,2013-08-23 06:45:00
9:15 AM,69.8,51.8,53,30.06,-9999.0,North,6.9,-,N/A,,Clear,10,2013-08-23 07:15:00
9:45 AM,71.6,51.8,50,30.06,-9999.0,NNE,6.9,-,N/A,,Clear,20,2013-08-23 07:45:00
10:15 AM,73.4,51.8,47,30.06,-9999.0,North,6.9,-,N/A,,Clear,10,2013-08-23 08:15:00
10:45 AM,75.2,51.8,44,30.06,-9999.0,NNE,6.9,-,N/A,,Clear,20,2013-08-23 08:45:00
11:15 AM,77.0,51.8,41,30.04,-9999.0,NNE,8.1,-,N/A,,Clear,30,2013-08-23 09:15:00
11:45 AM,80.6,51.8,37,30.04,-9999.0,NNE,8.1,-,N/A,,Clear,20,2013-08-23 09:45:00
12:15 PM,82.4,53.6,37,30.04,-9999.0,North,5.8,-,N/A,,Clear,360,2013-08-23 10:15:00
12:45 PM,82.4,53.6,37,30.04,-9999.0,North,5.8,-,N/A,,Clear,10,2013-08-23 10:45:00
1:15 PM,82.4,51.8,35,30.04,-9999.0,NE,5.8,-,N/A,,Clear,40,2013-08-23 11:15:00
1:45 PM,82.4,51.8,35,30.01,-9999.0,ENE,5.8,-,N/A,,Clear,60,2013-08-23 11:45:00
2:00 PM,83,52,24,30.01,25,ENE,4.5,,,,Partly Cloudy,60,2013-08-23 12:00:00
2:15 PM,84.2,53.6,35,30.01,-9999.0,North,8.1,-,N/A,,Clear,10,2013-08-23 12:15:00
2:45 PM,84.2,53.6,35,30.01,-9999.0,North,5.8,-,N/A,,Clear,10,2013-08-23 12:45:00
3:15 PM,84.2,51.8,33,30.01,-9999.0,NE,6.9,-,N/A,,Clear,50,2013-08-23 13:15:00
3:45 PM,84.2,53.6,35,29.98,-9999.0,North,5.8,-,N/A,,Clear,360,2013-08-23 13:45:00
4:15 PM,84.2,53.6,35,29.98,-9999.0,North,5.8,-,N/A,,Clear,10,2013-08-23 14:15:00
4:45 PM,84.2,53.6,35,29.98,-9999.0,North,6.9,-,N/A,,Clear,360,2013-08-23 14:45:00
5:15 PM,82.4,53.6,37,29.98,-9999.0,NNW,8.1,-,N/A,,Clear,340,2013-08-23 15:15:00
5:45 PM,82.4,53.6,37,29.98,-9999.0,North,6.9,-,N/A,,Clear,360,2013-08-23 15:45:00
6:15 PM,80.6,51.8,37,29.98,-9999.0,North,6.9,-,N/A,,Clear,360,2013-08-23 16:15:00
6:45 PM,80.6,53.6,39,29.98,-9999.0,North,6.9,-,N/A,,Clear,350,2013-08-23 16:45:00
7:15 PM,77.0,53.6,44,29.98,-9999.0,North,5.8,-,N/A,,Clear,350,2013-08-23 17:15:00
7:45 PM,77.0,53.6,44,29.98,-9999.0,North,5.8,-,N/A,,Clear,360,2013-08-23 17:45:00
8:00 PM,76,53,33,29.96,19,North,6.7,,,,Partly Cloudy,0,2013-08-23 18:00:00
8:15 PM,75.2,51.8,44,29.98,-9999.0,North,6.9,-,N/A,,Clear,10,2013-08-23 18:15:00
8:45 PM,73.4,51.8,47,29.98,-9999.0,North,5.8,-,N/A,,Clear,10,2013-08-23 18:45:00
9:15 PM,71.6,53.6,53,29.98,-9999.0,NNE,5.8,-,N/A,,Clear,30,2013-08-23 19:15:00
9:45 PM,69.8,51.8,53,30.01,-9999.0,NNE,5.8,-,N/A,,Clear,30,2013-08-23 19:45:00
10:45 PM,69.8,50.0,49,30.01,-9999.0,NE,5.8,-,N/A,,Clear,50,2013-08-23 20:45:00
11:45 PM,68.0,50.0,52,30.01,-9999.0,NE,5.8,-,N/A,,Clear,40,2013-08-23 21:45:00